EHI
0 0 0 0 0 0 0 0 0 0 0 0 0 0 0 0 0 0 0 0 0 0 0 0 0 0 0 0 0 0 0 0 0 0 0 0 0 0
0 0 0 0 0 0 0 0 0 0 0 0 0 0 0 0 0 0 0 0 0 0 0 0 0 0 0 0 0 0 0 0 0 0 0 0 0 0
0 0 0 0 0 0 0 0 0 0 0 0 0 0 0 0 0 0 0 0 0 0 0 0 0 0 0 0 0 0 0 0 0 0 0 0 0 0
0 0 0 0 0 0 0 0 0 0 0 0 0 0 0 0 0 0 0 0 0 0 0 0 0 0 0 0 0 0 0 0 0 0 0 0 0 0
0 0 0 0 0 0 0 0 0 0 0 0 0 0 0 0 0 0 0 0 0 0 0 0 0 0 0 0 0 0 0 0 0 0 0 0 0 0
0 0 0 0 0 0 0 0 0 0 0 0 0 0 0 0 0 0 0 0 0 0 0 0 0 0 0 0 0 0 0 0 0 0 0 0 0 0
0 0 0 0 0 0 0 0 0 0 0 0 0 0 0 0 0 0 0 0 0 0 0 0 0 0 0 0 0 0 0 0 0 0 0 0 0 0
0 0 0 0 0 0 0 0 0 0 0 0 0 0 0 0 0 0 0 0 0 0 0 0 0 0 0 0 0 0 0 0 0 0 0 0 0 0
0 0 0 0 0 0 0 0 0 0 0 0 0 0 0 0 0 0 0 0 0 0 0 0 0 0 0 0 0 0 0 0 0 0 0 0 0 0
0 0 0 0 0 0 0 0 0 0 0 0 0 0 0 0 0 0 0 0 0 0 0 0 0 0 0 0 0 0 0 0 0 0 0 0 0 0
0 0 0 0 0 0 0 0 0 0 0 0 0 0 0 0 0 0 0 0 0 0 0 0 0 0 0 0 0 0 0 0 0 0 0 0 0 0
0 0 0 0 0 0 0 0 0 0 0 0 0 0 0 0 0 0 0 0 0 0 0 0 0 0 0 0 0 0 0 0 0 0 0 0 0 0
0 0 0 0 0 0 0 0 0 0 0 0 0 0 0 0 0 0 0 0 0 0 0 0 0 0 0 0 0 0 0 0 0 0 0 0 0 0
0 0 0 0 0 0 0 0 0 0 0 0 0 0 0 0 0 0 0 0 0 0 0 0 0 0 0 0 0 0 0 0 0 0 0 0 0 0
0 0 0 0 0 0 0 0 0 0 0 0 0 0 0 0 0 0 0 0 0 0 0 0 0 0 0 0 0 0 0 0 0 0 0 0 0 0
0 0 0 0 0 0 0 0 0 0 0 0 0 0 0 0 0 0 0 0 0 0 0 0 0 0 0 0 0 0 0 0 0 0 0 0 0 0
0 0 0 0 0 0 0 0 0 0 0 0 0 0 0 0 0 0 0 0 0 0 0 0 0 0 0 0 0 0 0 0 0 0 0 0 0 0
0 0 0 0 0 0 0 0 0 0 0 0 0 0 0 0 0 0 0 0 0 0 0 0 0 0 0 0 0 0 0 0 0 0 0 0 0 0
0 0 0 0 0 0 0 0 0 0 0 0 0 0 0 0 0 0 0 0 0 0 0 0 0 0 0 0 0 0 0 0 0 0 0 0 0 0
0 0 0 0 0 0 0 0 0 0 0 0 0 0 0 0 0 0 0 0 0 0 0 0 0 0 0 0 0 0 0 0 0 0 0 0 0 0
0 0 0 0 0 0 0 0 0 0 0 0 0 0 0 0 0 0 0 0 0 0 0 0 0 0 0 0 0 0 0 0 0 0 0 0 0 0
0 0 0 0 0 0 0 0 0 0 0 0 0 0 0 0 0 0 0 0 0 0 0 0 0 0 0 0 0 0 0 0 0 0 0 0 0 0
0 0 0 0 0 0 0 0 0 0 0 0 0 0 0 0 0 0 0 0 0 0 0 0 0 0 0 0 0 0 0 0 0 0 0 0 0 0
Wind_Speed
3 2 2 1 1 1 2 4 5 3 2 3 2 2 2 3 5 4 4 8 10 9 9 9 9 10 10 9 9 9 9 9 9 9 10 10 10 11
2 3 2 1 2 2 2 2 3 4 3 3 3 2 2 3 5 4 5 8 10 11 11 11 11 11 11 11 11 10 10 10 10 11 11 11 10 11
2 3 2 2 2 1 2 2 2 3 3 2 1 1 1 2 2 3 4 4 4 10 12 12 12 12 12 12 12 12 11 11 11 11 12 11 11 12
3 3 3 2 2 1 1 1 1 2 3 2 1 1 2 3 2 3 3 4 4 8 11 12 12 12 12 12 12 12 12 12 12 12 12 12 13 13
5 5 4 4 3 2 2 1 1 1 2 2 2 1 2 1 1 2 3 3 4 5 7 9 11 11 11 12 12 12 13 13 13 13 13 13 13 13
5 5 5 5 5 4 3 3 2 1 1 1 1 2 2 2 0 2 3 3 3 3 4 5 7 9 10 11 12 12 13 13 13 13 14 14 14 14
5 5 6 7 8 6 4 4 3 2 2 1 1 1 2 1 2 2 2 3 3 2 2 3 3 3 5 8 10 12 13 13 13 14 14 14 14 14
5 5 5 6 8 9 9 9 8 5 4 3 3 3 4 3 3 2 2 1 3 3 1 4 2 4 5 5 9 12 12 13 13 14 14 14 14 14
7 5 5 5 6 5 7 8 8 9 9 6 5 6 5 5 3 3 3 4 5 4 1 4 3 4 5 6 11 12 12 12 12 13 14 14 14 14
7 7 7 5 5 6 5 5 6 6 7 6 6 7 6 5 5 4 4 4 4 4 3 4 4 4 5 5 9 11 11 11 11 12 12 13 13 14
6 7 7 7 8 9 6 6 6 6 7 9 10 9 9 9 5 2 2 2 4 4 3 4 4 4 4 5 7 10 10 11 11 12 12 12 13 11
4 5 8 8 8 9 6 6 7 6 4 4 5 7 7 7 8 6 5 4 4 4 4 3 3 2 4 4 4 4 5 8 11 12 12 12 11 6
4 4 4 8 9 9 8 6 8 6 3 4 3 3 3 3 4 5 5 5 5 6 4 3 3 2 3 4 4 4 4 5 5 6 9 11 11 7
5 4 5 8 9 9 7 7 8 5 2 2 3 3 3 4 4 4 5 6 7 8 7 4 3 4 4 5 5 4 4 5 4 5 5 8 9 11
4 5 5 6 6 6 8 8 5 3 2 3 4 5 4 4 3 3 3 4 5 6 6 5 5 5 4 5 6 5 5 5 4 5 5 5 5 5
3 2 3 4 3 2 3 3 3 3 3 4 4 4 2 2 2 2 3 3 3 5 5 5 5 5 5 6 6 6 5 5 4 5 5 6 5 5
3 1 1 1 1 1 1 1 1 1 2 3 3 3 2 2 3 2 2 2 3 4 5 4 4 4 6 6 6 7 6 6 6 6 5 6 6 6
4 2 2 2 2 2 2 1 1 2 3 3 2 3 3 3 3 3 2 2 3 4 4 4 4 4 4 5 7 7 6 6 5 5 4 5 8 7
3 2 1 1 1 1 1 1 2 2 2 2 2 2 3 3 3 3 3 3 4 4 5 4 3 3 5 7 6 6 5 6 5 5 5 5 8 8
2 1 1 1 1 0 1 1 1 1 1 1 2 2 2 2 2 3 3 3 4 4 4 4 3 4 5 7 6 6 7 6 5 6 7 6 7 9
1 1 1 1 1 0 0 0 0 1 1 1 1 2 2 2 2 3 3 5 4 4 5 5 6 7 5 3 5 6 6 8 9 7 6 6 7 5
2 2 2 2 1 1 1 1 1 1 1 1 2 2 2 2 3 4 3 4 4 4 5 6 6 5 3 5 7 8 8 8 8 11 11 10 5 5
3 3 3 2 2 2 2 2 2 2 2 2 2 3 3 3 3 3 4 4 4 5 5 5 5 4 4 5 7 7 10 9 7 6 7 10 13 15
Wind_Direction
141 135 131 125 115 130 145 148 146 162 248 268 274 244 211 200 201 193 208 223 227 233 240 245 247 247 248 250 252 255 258 260 261 261 263 266 269 272
147 134 128 129 100 97 121 134 141 148 193 247 243 244 215 203 198 198 220 231 235 240 244 249 251 252 252 253 254 255 256 257 258 259 260 260 262 265
157 150 160 149 121 106 100 112 127 136 161 260 271 256 177 205 207 230 241 240 248 246 247 250 253 257 257 256 256 257 258 258 257 257 258 258 258 260
180 163 179 161 146 134 119 116 135 151 153 195 265 260 234 227 226 238 246 241 244 254 251 252 255 258 259 258 258 259 260 259 259 259 259 259 259 260
187 182 189 169 175 169 158 161 174 151 144 164 227 253 266 256 242 268 272 274 267 262 256 255 257 260 263 263 261 261 261 261 261 260 259 259 258 258
197 194 192 187 190 187 184 191 182 158 150 160 219 260 269 280 198 257 285 281 279 284 284 275 268 270 270 269 266 265 263 261 259 259 260 259 258 258
203 202 202 200 198 194 190 190 178 175 176 179 217 253 268 269 244 235 249 282 285 265 283 285 284 282 280 274 271 269 266 264 261 260 260 259 259 258
204 211 214 208 208 208 206 197 186 183 192 194 210 221 240 234 230 224 228 276 292 278 256 281 272 275 272 264 268 271 268 267 265 263 261 260 260 259
203 207 218 217 207 207 216 216 216 214 201 189 208 225 229 225 213 233 229 226 239 253 237 276 270 270 271 273 271 272 272 274 274 271 267 265 263 262
201 200 207 217 211 203 212 223 232 232 221 211 215 228 228 222 207 215 227 246 263 258 199 252 267 262 274 274 274 273 273 274 276 275 273 270 268 266
213 209 207 212 220 211 205 222 241 252 244 228 227 238 243 242 225 209 242 248 274 274 213 217 257 268 272 269 273 274 275 279 280 280 279 276 273 274
224 222 218 216 219 211 206 213 232 245 248 252 248 258 257 258 240 213 216 226 248 273 253 216 252 266 288 273 270 274 277 278 279 279 279 277 278 276
219 224 224 219 221 220 213 214 229 231 227 234 247 259 265 260 250 230 217 215 228 247 246 211 245 244 242 275 282 270 264 270 276 274 274 273 273 262
216 219 221 220 222 226 221 228 232 228 224 233 247 259 263 264 260 251 240 233 233 244 256 228 234 247 259 272 277 278 275 269 264 269 273 277 275 268
214 212 213 217 224 233 234 233 228 214 208 228 247 255 252 256 263 275 279 266 264 260 263 246 242 254 247 258 268 268 281 279 263 265 274 273 269 268
226 214 211 211 214 227 238 230 211 204 204 228 245 255 261 269 270 266 274 286 287 287 280 268 259 255 261 262 262 272 267 267 276 274 273 273 270 259
178 158 159 164 196 224 229 228 212 207 227 243 253 266 269 269 270 266 265 272 271 280 292 294 280 264 251 256 270 270 270 269 267 274 277 280 274 266
146 153 189 197 203 214 214 224 223 232 239 238 243 251 258 262 271 276 270 265 271 273 277 281 296 307 302 275 241 258 269 271 276 275 266 274 281 277
125 148 170 196 211 211 222 227 240 249 246 239 246 257 262 268 271 276 278 274 275 276 278 281 283 280 293 296 282 243 259 278 281 281 273 266 275 278
122 137 154 163 162 180 238 254 271 294 289 273 265 267 267 263 267 271 270 269 276 282 287 288 278 268 266 275 280 281 266 264 273 279 282 280 273 274
125 115 108 108 104 112 288 308 322 322 320 307 303 295 285 278 278 279 279 283 282 282 287 286 277 277 270 277 286 285 277 264 257 264 277 286 290 289
92 86 75 74 71 59 55 49 38 15 356 339 310 302 297 287 284 289 291 293 290 285 287 289 293 295 279 275 284 288 291 294 287 277 262 246 256 270
82 77 69 59 52 51 51 49 41 12 353 333 316 309 306 301 295 293 294 291 291 293 295 297 299 292 282 278 284 290 294 299 304 305 293 277 263 260